Location: Ch�risy
(50.2331°N, 2.9131°E)
Time: 19:11:05
(UTC+00:00)

EXPRESS MD2 - Pass Details

Date: 17 January 2021
Orbit: 260 x 3983 km, 49.9° (Epoch: 27 February)

Event Time Altitude Azimuth Distance (km) Brightness Sun altitude
Rises 18:01:08 0° 283° (WNW) 5,445 9.5 -16.1°
Reaches altitude 10° 18:05:41 10° 282° (WNW) 3,789 8.6 -16.8°
Maximum altitude 18:14:11 68° 202° (SSW) 906 4.4 -18.1°
Enters shadow 18:16:42 26° 126° (SE) 1,295 4.8 -18.5°
